Location: Henry Coe State Park
(37.1875°N, 121.5503°W)
Time: 06:17:48
(UTC-07:00)

Daily predictions for brighter satellites

Satellite Brightness Start Highest point End
(mag) Time Altitude Azimuth Time Altitude Azimuth Time Altitude Azimuth
Cosmos 2292 Rocket 4.2 19:28:21 10° SSW 19:31:37 44° W 19:34:31 10° N
Cosmos 468 Rocket 4.1 19:29:04 10° SSW 19:34:16 84° WNW 19:39:33 10° NNE
Cosmos 1709 Rocket 4.1 19:28:09 10° S 19:34:28 82° E 19:40:53 10° N
Cosmos 841 Rocket 3.9 19:29:56 10° S 19:34:40 39° ESE 19:39:25 10° NE
Meteor 2-5 Rocket 4.2 19:30:34 10° N 19:36:05 41° ENE 19:41:28 10° SE
Cosmos 1937 Rocket 3.7 19:33:36 10° N 19:38:48 52° ENE 19:43:54 10° SE
Cosmos 2298 Rocket 4.2 19:35:16 10° N 19:40:32 56° ENE 19:45:44 10° SSE
Tiangong 2 3.8 19:39:55 10° W 19:42:04 17° SW 19:44:12 10° S
Cosmos 2084 3.2 19:38:34 10° SSW 19:42:41 67° ESE 19:46:36 10° NE
HJ-1C 4.5 19:40:25 10° SE 19:43:14 26° ENE 19:46:04 10° NNE
Cosmos 1707 2.9 19:40:48 10° N 19:44:38 50° E 19:48:26 10° SSE
Resurs 01 Rocket 3.2 19:41:53 11° ESE 19:44:40 18° ENE 19:47:35 10° NNE
Cosmos 304 Rocket 4.1 19:40:23 10° S 19:44:53 42° ESE 19:49:24 10° NNE
USA 229 DEB 3.8 19:40:09 10° NNW 19:47:23 80° ENE 19:54:44 10° SE
COSMOS 2406 3.9 19:42:30 10° SSE 19:47:28 32° ESE 19:52:30 10° NE
USA 229 3.8 19:40:15 10° NNW 19:47:29 79° ENE 19:54:49 10° SE
FENGYUN 3A 3.6 19:43:14 10° SSE 19:48:35 85° ENE 19:53:59 10° NNW
Cosmos 1656 Rocket 4.2 19:46:35 10° N 19:51:52 40° ENE 19:57:02 10° SE
FengYun 1-2 T 4.3 19:47:40 10° SSE 19:53:09 58° ENE 19:58:37 10° N
Cosmos 2228 3.0 19:49:42 10° S 19:54:01 62° E 19:58:19 10° NNE
Cosmos 1763 Rocket 3.4 19:50:31 10° SSW 19:55:37 86° ESE 20:00:47 10° NNE
Cosmos 2369 Rocket 3.4 19:51:11 10° NW 19:56:31 44° WSW 20:01:47 10° S
Cosmos 540 Rocket 4.1 19:54:28 10° SSE 19:58:54 31° E 20:03:22 10° NE
Cosmos 1271 Rocket 4.4 19:56:54 10° SW 20:00:23 36° WNW 20:03:56 10° N
Cosmos 1606 Rocket 4.3 19:56:25 10° SSW 20:00:41 55° W 20:04:57 10° N
Cosmos 482 Debris 3.5 19:56:51 10° NW 20:00:47 81° NE 20:02:13 24° SE
NOSS 3-1 (C) 4.3 19:54:05 10° NNW 20:01:37 55° NE 20:09:05 13° SE
Cosmos 2184 Rocket 4.1 19:55:37 10° SSE 20:01:40 53° E 20:07:49 10° NNE
Cosmos 2058 Rocket 3.0 19:57:51 10° S 20:02:12 85° E 20:06:35 10° N
ALOS 2.8 19:57:58 10° S 20:02:34 62° W 20:07:12 10° NNW
FREGAT/IRIS 2.6 20:00:56 10° S 20:03:58 84° WSW 20:07:00 10° NNW
Cosmos 1953 Rocket 3.7 20:00:02 10° N 20:04:22 76° W 20:08:40 10° S
BREEZE-M DEB 3.3 19:55:45 10° NW 20:04:43 76° NNE 20:06:45 22° ESE
Cosmos 1340 Rocket 3.3 20:00:58 10° NNW 20:05:00 64° W 20:09:02 10° S
Cosmos 1378 3.1 20:03:07 10° N 20:06:55 89° ESE 20:10:40 10° S
Thor Agena Rocket 4.2 20:04:15 10° N 20:09:26 61° WNW 20:14:32 10° SSW
Cosmos 1544 3.6 20:06:36 10° SSE 20:09:53 34° E 20:13:12 10° NNE
Cosmos 1805 4.1 20:14:16 27° E 20:14:16 27° E 20:17:36 10° NNE
CZ-2D R/B 3.4 20:17:58 25° SE 20:19:52 49° ENE 20:23:34 10° N
Spot 2 Rocket 3.9 20:19:11 24° ESE 20:21:39 39° ENE 20:26:19 10° N
Cosmos 2327 Rocket 4.3 20:18:09 10° S 20:24:16 74° E 20:30:20 10° N
Cosmos 836 Rocket 4.5 20:19:22 10° S 20:24:34 61° ESE 20:29:46 10° NNE
Lacrosse 5 4.4 20:23:43 10° WNW 20:27:06 18° WSW 20:30:27 10° SSW
Cosmos 1356 Rocket 3.4 20:24:16 10° N 20:28:36 87° E 20:32:38 12° S
SJ-6B 3.5 20:29:12 10° S 20:33:10 55° W 20:37:04 10° NNW
BREEZE M DEB (TANK) 2.9 20:29:27 10° NW 20:35:21 54° NNE 20:35:50 48° ENE
Yuri Rocket 4.4 20:33:28 10° SW 20:36:48 21° S 20:36:51 21° S
GEOS 3 Rocket 3.8 20:36:06 11° NE 20:41:06 50° ESE 20:46:16 10° SSW
Meteor 1-24 Rocket 3.9 20:39:28 10° N 20:45:27 80° W 20:51:13 10° S
Cosmos 1125 Rocket 3.6 20:41:57 10° N 20:47:11 57° ENE 20:48:12 49° ESE
Envisat 2.8 20:52:10 44° SSE 20:53:45 76° ENE 20:58:50 10° N
ATLAS CENTAUR R/B 3.0 20:44:04 10° NW 20:55:37 73° SW 20:57:21 42° SSE
Cosmos 1943 Rocket 4.4 20:52:44 10° NW 20:56:57 22° W 21:01:11 10° SSW
Cosmos 372 Rocket 3.9 20:55:21 10° NNW 21:00:35 67° ENE 21:00:54 65° E
Resurs 1-3 3.8 21:00:28 47° SSW 21:01:36 70° WSW 21:05:59 10° NNW
Milstar 3 Cent rocket 3.3 20:59:53 10° SW 21:02:54 24° S 21:02:54 24° S
Cosmos 2154 Rocket 3.9 21:00:22 10° S 21:06:34 86° W 21:12:51 10° N
Cosmos 2341 Rocket 3.8 21:13:41 45° S 21:15:45 80° E 21:21:59 10° N
Resurs 01 Rocket 2.9 21:19:28 30° SW 21:20:50 38° W 21:24:58 10° NNW
GP-B 4.5 21:26:06 10° NNW 21:30:11 37° W 21:31:16 32° WSW
ATLAS 2AS CENTAUR R/B 3.8 21:26:37 10° NNW 21:33:45 35° NE 21:33:45 35° NE
Meteor 1-21 Rocket 4.5 21:33:38 10° NNW 21:38:39 66° NW 21:38:39 66° NW
FALCON 9 R/B 2.8 21:39:51 10° W 21:42:57 55° SW 21:42:57 55° SW
